This demonstration page uses our WeatherBlox Daily Observations layout. Learn more.

Left ArrowRight Arrow

Hourly Observations for September 11, 2018

Temp ( °F °C ) Dew Point ( °F °C ) Humidity (%) Winds ( mph kmh ) Pressure ( in mb ) Visibility ( mi km ) Precip ( " mm )
12:54 am 00:54 Clear 60 15.6 58 14.4 93 93 S 6 9 30.00 1016 10 16 0.00 0.00
1:54 am 01:54 Clear 59 15 58 14.4 96 96 S 6 9 30.00 1016 10 16 0.00 0.00
2:54 am 02:54 Clear 60 15.6 58 14.4 93 93 SSE 8 13 30.00 1016 10 16 0.00 0.00
3:54 am 03:54 Clear 58 14.4 56 13.3 93 93 SSE 7 11 29.99 1016 10 16 0.00 0.00
4:54 am 04:54 Clear 58 14.4 56 13.3 93 93 SSE 7 11 29.99 1016 10 16 0.00 0.00
5:54 am 05:54 Clear 57 13.9 56 13.3 96 96 S 6 9 29.99 1016 10 16 0.00 0.00
7:54 am 07:54 Sunny 60 15.6 58 14.4 93 93 S 10 17 30.01 1016 9 14 0.00 0.00
8:54 am 08:54 Sunny 65 18.3 61 16.1 87 87 S 15 24 30.00 1016 10 16 0.00 0.00
9:54 am 09:54 Sunny 70 21.1 61 16.1 73 73 S 20 31 29.99 1016 10 16 0.00 0.00
10:54 am 10:54 Sunny 73 22.8 62 16.7 69 69 S 21 33 29.99 1016 10 16 0.00 0.00
11:54 am 11:54 Sunny 77 25 63 17.2 62 62 S 17 28 29.98 1015 10 16 0.00 0.00
12:54 pm 12:54 Sunny 79 26.1 63 17.2 58 58 S 16 26 29.96 1015 10 16 0.00 0.00
1:54 pm 13:54 Sunny 81 27.2 62 16.7 53 53 S 24 39 29.95 1014 10 16 0.00 0.00
2:54 pm 14:54 Sunny 82 27.8 62 16.7 51 51 S 20 31 29.93 1014 10 16 0.00 0.00
3:54 pm 15:54 Sunny 82 27.8 62 16.7 51 51 S 22 35 29.92 1013 10 16 0.00 0.00
4:54 pm 16:54 Sunny 82 27.8 62 16.7 51 51 S 20 31 29.92 1013 10 16 0.00 0.00
5:54 pm 17:54 Sunny 81 27.2 62 16.7 53 53 S 15 24 29.91 1013 10 16 0.00 0.00
6:54 pm 18:54 Sunny 78 25.6 62 16.7 58 58 S 15 24 29.91 1013 10 16 0.00 0.00
7:54 pm 19:54 Clear 73 22.8 62 16.7 69 69 SSE 9 15 29.91 1013 10 16 0.00 0.00
8:54 pm 20:54 Clear 70 21.1 62 16.7 76 76 S 9 15 29.94 1014 10 16 0.00 0.00
9:54 pm 21:54 Clear 71 21.7 62 16.7 73 73 S 10 17 29.96 1015 10 16 0.00 0.00
10:54 pm 22:54 Clear 66 18.9 61 16.1 84 84 S 9 15 29.98 1015 10 16 0.00 0.00
11:54 pm 23:54 Clear 64 17.8 60 15.6 87 87 S 8 13 29.98 1015 10 16 0.00 0.00

Powered by AerisWeather